TimeCST,TemperatureF,Dew PointF,Humidity,Sea Level PressureIn,VisibilityMPH,Wind Direction,Wind SpeedMPH,Gust SpeedMPH,PrecipitationIn,Events,Conditions,WindDirDegrees,DateUTC
12:10 AM,69.8,66.2,88,30.06,10.0,South,9.2,-,N/A,,Overcast,190,2013-12-09 06:10:00
12:23 AM,69.8,66.2,88,30.06,10.0,South,6.9,-,N/A,,Overcast,190,2013-12-09 06:23:00
12:43 AM,69.8,66.2,88,30.07,10.0,South,6.9,-,N/A,,Overcast,190,2013-12-09 06:43:00
12:51 AM,69.8,66.2,88,30.06,10.0,South,5.8,-,N/A,,Overcast,180,2013-12-09 06:51:00
12:56 AM,70.0,66.9,90,30.06,10.0,South,6.9,-,N/A,,Overcast,180,2013-12-09 06:56:00
1:19 AM,69.8,66.2,88,30.06,10.0,South,9.2,-,N/A,,Overcast,180,2013-12-09 07:19:00
1:32 AM,69.8,66.2,88,30.06,10.0,South,6.9,-,N/A,,Overcast,180,2013-12-09 07:32:00
1:56 AM,69.1,66.9,93,30.04,10.0,South,5.8,-,N/A,,Overcast,180,2013-12-09 07:56:00
2:56 AM,69.1,66.9,93,30.04,10.0,South,9.2,-,N/A,,Overcast,190,2013-12-09 08:56:00
3:56 AM,69.1,66.0,90,30.04,10.0,South,10.4,-,N/A,,Overcast,190,2013-12-09 09:56:00
4:56 AM,69.1,66.0,90,30.03,10.0,SSW,6.9,-,N/A,,Overcast,200,2013-12-09 10:56:00
5:56 AM,69.1,66.0,90,30.04,10.0,SSW,5.8,-,N/A,,Overcast,200,2013-12-09 11:56:00
6:56 AM,59.0,57.0,93,30.08,10.0,NNW,6.9,-,0.02,Rain,Light Rain,340,2013-12-09 12:56:00
7:26 AM,57.2,55.4,94,30.11,4.0,NW,5.8,-,0.02,Rain,Light Rain,320,2013-12-09 13:26:00
7:37 AM,57.2,55.4,94,30.11,2.0,NW,4.6,-,0.06,Rain,Rain,320,2013-12-09 13:37:00
7:47 AM,57.2,55.4,94,30.11,5.0,NNW,3.5,-,0.06,Rain,Light Rain,340,2013-12-09 13:47:00
7:56 AM,57.9,55.9,93,30.10,6.0,NNW,4.6,-,0.06,Rain,Light Rain,330,2013-12-09 13:56:00
8:09 AM,57.2,57.2,100,30.11,10.0,NNW,4.6,-,0.00,,Overcast,340,2013-12-09 14:09:00
8:35 AM,57.2,55.4,94,30.13,2.0,NNW,6.9,-,0.03,Rain,Rain,340,2013-12-09 14:35:00
8:43 AM,57.2,55.4,94,30.13,4.0,Variable,3.5,-,0.04,Rain,Light Rain,0,2013-12-09 14:43:00
8:56 AM,57.9,55.9,93,30.13,7.0,NNW,6.9,-,0.04,Rain,Light Rain,330,2013-12-09 14:56:00
9:56 AM,57.0,55.0,93,30.14,7.0,WNW,5.8,-,0.00,,Overcast,300,2013-12-09 15:56:00
10:56 AM,57.9,55.0,90,30.11,10.0,North,6.9,-,N/A,,Overcast,350,2013-12-09 16:56:00
11:56 AM,59.0,55.0,87,30.11,10.0,North,5.8,-,N/A,,Overcast,350,2013-12-09 17:56:00
12:56 PM,59.0,54.0,83,30.08,10.0,NNW,5.8,-,N/A,,Overcast,340,2013-12-09 18:56:00
1:27 PM,59.0,53.6,82,30.08,10.0,Calm,Calm,-,N/A,,Overcast,0,2013-12-09 19:27:00
1:42 PM,60.8,55.4,82,30.07,10.0,Calm,Calm,-,N/A,,Overcast,0,2013-12-09 19:42:00
1:56 PM,62.1,55.0,78,30.06,10.0,Calm,Calm,-,N/A,,Overcast,0,2013-12-09 19:56:00
2:25 PM,62.6,55.4,77,30.07,10.0,Variable,3.5,-,N/A,,Overcast,0,2013-12-09 20:25:00
2:39 PM,62.6,55.4,77,30.07,10.0,NNW,3.5,-,N/A,,Overcast,330,2013-12-09 20:39:00
2:56 PM,61.0,55.0,81,30.06,10.0,NNW,6.9,-,N/A,,Overcast,340,2013-12-09 20:56:00
3:56 PM,59.0,54.0,83,30.07,10.0,North,5.8,-,N/A,,Overcast,360,2013-12-09 21:56:00
4:48 PM,55.4,53.6,94,30.09,10.0,NW,4.6,-,N/A,,Overcast,320,2013-12-09 22:48:00
4:56 PM,55.9,54.0,93,30.09,10.0,NNW,5.8,-,N/A,,Overcast,330,2013-12-09 22:56:00
5:56 PM,55.0,54.0,96,30.08,3.0,North,5.8,-,N/A,,Overcast,10,2013-12-09 23:56:00
6:56 PM,55.0,53.1,93,30.07,7.0,North,4.6,-,N/A,,Overcast,10,2013-12-10 00:56:00
7:56 PM,55.0,53.1,93,30.07,5.0,Calm,Calm,-,N/A,,Overcast,0,2013-12-10 01:56:00
8:11 PM,55.4,53.6,94,30.08,2.5,Calm,Calm,-,N/A,,Overcast,0,2013-12-10 02:11:00
8:30 PM,55.4,53.6,94,30.07,0.8,Calm,Calm,-,N/A,,Overcast,0,2013-12-10 02:30:00
8:56 PM,54.0,53.1,97,30.06,0.2,Calm,Calm,-,N/A,Fog,Fog,0,2013-12-10 02:56:00
9:56 PM,55.0,54.0,96,30.05,0.5,Calm,Calm,-,N/A,Fog,Fog,0,2013-12-10 03:56:00
10:56 PM,55.0,54.0,96,30.03,0.8,Calm,Calm,-,N/A,,Mist,0,2013-12-10 04:56:00
11:56 PM,55.0,54.0,96,30.02,1.0,Calm,Calm,-,N/A,,Mist,0,2013-12-10 05:56:00